Theta_e
331 330 330 330 329 327 326 324 322 318 315 310 304 301 301 300 300 300 300 300 301 300 302 318 318 318 318 319 320 319 319 316 316 316 317 318 318 317 317 318 320 321 322
332 331 328 327 325 328 326 325 324 320 316 313 309 302 300 300 300 299 299 300 300 301 303 317 317 319 319 319 319 319 318 315 315 314 315 316 316 316 315 315 314 316 318
330 330 330 328 327 328 327 325 324 322 321 316 313 309 302 300 300 299 299 299 300 301 304 309 318 318 319 320 320 319 317 315 314 313 311 314 314 314 313 311 311 312 313
329 331 330 329 328 328 328 325 324 321 319 318 315 312 307 302 299 298 298 298 299 300 302 305 311 316 319 320 320 320 317 315 314 312 311 313 312 312 311 310 311 310 311
325 324 324 324 324 324 325 324 321 319 317 316 315 312 308 305 302 299 298 297 298 299 300 302 306 310 317 318 319 318 317 316 314 313 311 311 311 311 310 309 309 309 310
321 320 319 319 319 318 316 315 316 316 313 312 311 310 310 309 306 305 303 299 297 297 298 301 303 307 309 311 318 316 316 316 315 313 311 310 310 310 310 309 308 308 308
315 316 315 314 312 313 312 312 312 311 311 309 305 307 308 308 308 306 302 300 298 297 297 298 301 304 309 313 315 314 316 316 316 313 312 310 309 308 308 308 308 308 308
305 305 306 308 309 309 308 307 307 307 306 307 303 299 298 302 300 298 297 298 298 297 296 296 298 301 304 308 311 312 312 315 316 315 313 311 309 308 307 307 307 307 307
299 300 301 300 300 301 301 303 304 302 302 303 302 301 299 297 293 303 303 299 297 297 297 297 297 297 299 301 304 307 310 310 312 314 313 311 310 308 307 307 307 307 307
291 293 294 295 296 296 296 296 298 300 300 299 299 299 298 295 295 296 298 300 299 298 297 297 296 296 296 297 297 299 300 305 308 308 312 313 311 308 306 306 306 306 306
286 286 286 287 288 288 290 292 294 295 296 297 297 296 296 295 295 293 295 295 296 299 299 297 297 297 297 297 296 296 296 296 298 303 306 311 311 309 306 305 305 305 306
285 285 285 285 285 285 285 285 286 288 290 293 294 295 295 294 295 294 293 296 295 296 298 298 298 298 297 297 297 297 296 296 295 295 298 304 309 308 307 305 304 305 305
285 285 285 285 285 285 285 285 285 285 285 285 285 287 290 292 292 293 293 294 294 295 295 296 297 297 298 298 297 297 296 295 295 294 294 296 306 308 306 305 303 303 304
284 284 284 284 284 284 284 284 283 283 284 284 284 284 284 284 286 289 291 292 293 294 295 295 296 296 297 297 297 296 297 296 295 294 293 296 303 306 306 305 303 302 302
284 284 284 283 283 283 283 283 283 283 282 282 283 283 283 284 284 284 285 289 291 293 293 294 295 295 295 295 296 296 295 295 295 294 293 293 301 303 303 303 303 301 301
284 283 283 283 282 282 281 281 281 281 281 281 281 281 282 282 282 283 284 284 286 289 290 292 292 292 292 293 293 294 295 296 295 294 294 293 293 299 301 301 301 300 300
283 282 282 282 281 281 280 280 280 280 280 280 280 280 280 281 281 281 282 282 283 285 287 287 287 287 288 289 290 291 292 294 294 295 295 294 292 293 297 299 298 298 299
282 281 281 280 280 279 279 279 279 279 278 279 279 279 279 279 280 280 280 281 282 283 285 285 285 286 286 286 286 287 290 291 292 293 294 294 293 292 293 295 296 296 296
281 280 279 278 278 277 277 277 277 277 278 278 278 278 278 279 279 279 280 280 281 282 283 284 284 285 285 286 286 286 286 288 291 291 292 293 293 292 292 295 295 296 295
281 280 278 278 277 276 276 275 276 276 276 277 277 278 278 278 278 278 279 279 280 281 282 282 283 284 284 285 286 287 287 287 287 290 291 291 292 292 291 292 295 295 295
279 278 278 277 276 275 274 274 274 274 275 275 275 276 276 277 278 279 279 279 279 280 281 282 283 283 284 284 285 286 286 286 287 288 289 289 290 290 291 290 293 295 295
278 277 276 275 273 272 271 273 273 273 273 272 272 272 272 273 274 275 277 278 279 280 280 280 281 282 283 284 284 285 286 286 286 287 287 288 289 288 289 289 290 291 293
277 276 274 273 272 271 270 271 272 271 271 271 271 271 271 271 271 272 272 274 275 275 277 277 278 278 279 281 282 284 285 285 286 286 287 286 288 289 288 288 288 289 291
275 274 272 271 270 270 269 269 270 270 270 269 269 270 270 270 270 271 272 273 273 274 274 274 275 276 277 277 278 280 281 282 285 286 286 286 287 287 287 289 288 288 289
273 272 270 270 269 269 268 269 270 270 269 269 269 269 270 270 270 272 273 274 274 274 273 274 275 276 277 278 279 279 280 283 284 284 285 285 286 286 286 287 288 288 288
271 270 269 268 268 268 268 267 269 270 270 270 270 270 270 271 272 273 273 273 273 273 273 273 273 274 274 274 275 277 279 280 281 284 285 285 285 286 285 286 286 287 287
Wind_Speed
18 17 17 16 15 14 13 13 17 15 14 13 13 13 12 11 11 10 10 10 9 9 8 6 7 6 5 4 4 4 3 1 2 3 1 1 3 4 5 5 8 9 11
20 20 19 17 20 17 15 16 14 14 14 15 14 14 14 14 14 13 12 11 10 9 8 7 8 7 6 6 6 5 5 4 4 5 4 3 5 4 4 6 6 9 11
13 18 19 17 18 18 17 18 16 15 16 16 16 16 17 16 16 16 15 14 12 10 9 10 8 9 9 9 9 8 7 6 6 8 5 6 4 5 5 4 4 4 4
14 17 16 15 16 17 18 21 19 17 15 15 17 17 18 18 18 17 18 17 16 14 12 11 12 11 10 10 8 9 9 9 7 8 5 8 8 8 6 4 4 5 4
9 8 10 12 13 14 16 20 19 17 15 14 15 17 18 19 19 20 21 20 18 17 16 14 14 14 15 13 13 12 12 11 10 9 7 8 9 9 8 7 7 6 6
17 17 16 14 12 10 12 12 12 13 13 14 14 17 19 20 20 22 23 23 22 20 20 18 17 16 16 16 14 12 13 14 12 11 9 10 10 11 11 10 8 8 8
21 20 19 18 18 16 13 11 10 11 12 13 13 11 14 18 19 20 23 24 24 23 22 22 20 19 18 17 20 18 13 15 15 16 14 12 12 11 11 11 10 10 9
20 21 20 20 19 17 17 17 15 12 8 10 5 8 3 7 5 10 11 15 23 25 24 23 23 22 22 21 22 21 20 17 18 18 17 16 15 14 13 13 12 12 11
20 18 18 18 19 19 18 16 15 13 12 13 11 3 3 2 7 12 21 16 13 18 19 24 26 26 25 26 25 25 25 25 24 20 21 20 18 17 15 14 14 13 12
27 26 23 22 20 19 20 20 17 13 9 11 14 7 12 13 3 4 5 23 26 23 16 19 22 23 26 29 30 30 29 29 29 28 26 23 22 18 17 16 15 14 14
29 29 28 28 28 26 24 21 19 18 15 12 11 12 13 10 12 9 7 5 22 31 31 30 27 26 25 26 29 31 31 31 30 31 31 27 26 22 18 17 17 16 16
26 26 25 25 25 25 25 23 22 21 20 16 14 12 11 7 8 11 5 15 16 20 27 30 28 27 28 27 28 29 30 32 32 31 32 34 32 27 22 19 18 18 18
24 24 23 23 23 23 22 21 21 21 20 20 20 18 15 15 14 15 15 18 11 13 15 24 27 23 25 27 29 29 30 28 32 33 32 31 33 34 29 24 20 20 20
20 19 20 20 21 21 22 21 22 21 20 19 19 18 18 17 17 17 13 12 10 14 20 20 15 23 25 24 26 28 31 31 27 32 33 31 32 35 33 29 25 23 24
17 17 19 20 21 21 22 23 24 24 24 23 21 21 21 20 18 18 18 18 11 6 9 12 18 13 17 22 25 28 30 30 28 26 32 35 34 32 33 30 28 26 26
17 18 20 21 23 24 25 26 28 28 28 28 28 27 25 25 24 21 20 21 20 18 8 13 22 27 31 30 32 32 34 36 36 31 28 33 39 37 34 32 31 29 28
19 20 23 25 28 31 31 32 32 32 32 33 31 30 31 29 28 26 26 26 27 24 15 27 27 30 31 32 31 31 32 34 37 37 36 32 34 41 42 41 36 32 30
17 20 22 26 29 31 32 33 34 34 33 34 33 32 32 31 32 32 30 28 27 27 24 22 28 27 27 30 31 30 30 32 36 36 36 36 35 35 42 43 41 39 35
22 25 29 30 32 33 33 33 31 31 32 33 33 30 28 27 27 26 28 29 26 25 25 24 27 28 29 25 29 31 30 31 34 36 37 37 38 38 36 42 43 42 41
24 28 30 30 31 31 32 26 24 26 28 28 29 28 28 27 27 26 26 27 26 26 25 25 24 24 25 24 25 26 27 30 33 33 36 39 39 40 39 41 43 43 43
25 27 29 31 31 30 24 26 28 28 29 30 29 28 27 27 29 30 31 29 28 28 26 24 24 24 21 20 21 19 25 22 30 31 33 37 37 40 42 39 42 43 44
26 27 28 29 31 27 24 23 25 29 30 29 30 29 29 30 29 30 31 31 32 31 27 23 24 25 28 23 24 25 25 21 9 17 24 33 33 39 41 40 42 45 47
26 27 28 29 30 31 23 25 25 27 29 28 28 28 29 27 28 28 29 30 32 31 33 34 33 32 32 29 28 27 26 26 29 27 25 24 28 36 34 35 37 39 44
25 27 27 26 30 31 25 25 25 27 25 25 25 26 27 28 27 28 30 30 29 28 27 29 31 35 34 34 33 33 34 37 38 35 30 25 26 31 32 35 35 34 39
24 25 24 28 28 30 26 24 24 26 24 25 25 26 28 29 29 28 31 30 28 27 27 30 34 35 34 34 36 37 34 28 26 32 30 31 31 26 26 34 37 35 34
23 24 27 25 26 28 25 22 23 25 25 26 28 28 27 28 29 29 31 30 29 29 29 32 34 34 34 33 34 34 32 30 32 24 29 31 28 21 8 29 37 39 36
Wind_Direction
253 254 256 253 260 263 272 290 291 289 289 287 281 282 279 278 279 281 284 287 287 275 269 270 266 269 266 256 231 252 214 266 301 306 324 266 232 227 231 240 244 243 241
263 255 257 261 267 260 267 279 284 283 284 285 284 282 282 280 281 281 281 281 284 281 267 259 263 261 257 248 244 242 238 282 276 285 235 258 263 266 267 261 267 245 245
268 259 258 262 266 260 261 267 266 271 285 287 286 285 284 283 282 281 280 278 277 278 270 256 251 260 257 255 254 246 253 267 265 285 255 253 256 257 267 305 309 283 262
278 263 254 263 268 263 266 263 260 259 265 279 288 290 287 286 285 284 281 279 276 273 268 259 250 246 247 253 243 237 256 261 268 272 285 248 250 253 252 282 283 267 270
17 339 320 303 291 277 271 262 256 256 266 278 288 291 289 287 286 284 281 280 278 275 273 268 258 249 246 244 252 248 260 254 268 252 263 255 256 259 259 269 268 259 257
39 34 26 11 354 338 321 297 274 269 284 294 298 296 292 290 288 287 285 280 278 276 274 271 266 258 254 249 235 253 259 255 257 252 258 258 259 260 258 258 256 257 261
42 42 41 36 31 23 13 3 345 332 325 320 317 310 313 304 294 288 279 275 274 273 272 272 270 265 257 250 244 252 267 249 255 261 263 256 258 257 253 254 256 255 250
50 45 40 38 36 37 32 25 15 355 343 343 332 323 340 327 315 336 334 316 288 273 269 270 270 267 265 260 257 256 251 251 259 258 260 251 257 254 253 252 250 249 253
50 49 49 46 40 35 34 30 22 15 353 338 336 284 318 289 322 307 311 329 329 325 303 285 278 274 271 269 267 262 258 255 252 260 260 252 250 251 248 249 249 247 246
57 53 51 49 48 40 30 27 20 17 5 346 339 317 278 276 294 312 284 302 305 308 313 308 301 292 284 277 274 271 267 261 258 255 250 253 243 247 249 248 245 244 243
58 54 51 49 47 45 41 33 24 21 17 2 353 325 318 304 275 253 299 306 301 295 298 301 299 301 298 290 283 276 271 268 263 258 252 251 241 238 244 248 249 246 242
53 49 46 45 44 40 38 35 35 31 22 13 3 355 337 315 314 300 284 298 287 292 295 296 296 295 292 292 292 290 280 270 267 263 257 248 248 236 241 246 251 251 248
45 41 37 36 34 31 27 25 23 23 21 15 8 360 346 325 313 303 300 298 290 305 292 291 292 289 288 286 286 290 294 283 266 263 260 254 245 243 243 246 248 248 247
38 32 30 28 26 21 16 13 10 9 6 2 355 349 341 340 337 319 294 290 301 294 295 288 295 288 285 288 289 289 286 289 286 263 258 254 246 244 244 248 248 247 243
27 21 19 17 14 9 5 358 354 352 347 344 341 336 330 326 324 322 317 301 269 294 295 302 301 299 293 290 289 288 289 288 288 284 262 252 244 240 243 245 246 245 241
12 8 6 4 360 355 350 346 343 338 334 331 329 325 320 318 316 314 311 306 297 269 279 290 284 286 291 291 292 285 282 282 283 284 279 259 252 242 240 242 244 243 239
1 358 356 352 348 344 342 340 338 334 330 327 324 321 314 314 312 310 307 303 298 288 269 286 290 294 295 296 295 290 286 283 281 278 277 276 260 252 246 246 246 242 237
351 348 345 342 341 340 338 336 332 330 328 323 320 317 313 313 308 307 305 301 294 290 277 279 286 289 288 295 295 294 291 284 281 279 276 272 271 259 250 247 244 244 241
343 342 343 344 341 339 336 334 331 326 321 316 313 309 304 302 298 297 299 295 292 288 283 277 279 285 287 288 290 291 290 289 282 278 275 271 268 266 254 243 242 239 242
336 336 338 337 336 334 333 333 324 316 310 305 302 300 298 296 295 294 292 288 288 289 289 283 282 283 284 289 282 279 279 284 286 283 279 273 268 264 261 244 238 236 237
332 332 332 332 332 332 330 325 319 314 309 306 303 301 298 295 292 289 290 288 287 284 282 284 286 287 280 281 275 280 276 277 276 278 278 276 273 265 259 250 240 237 235
327 330 332 332 330 329 323 321 316 310 306 304 303 303 300 298 294 290 286 283 280 282 282 283 284 280 281 279 277 277 277 279 282 275 260 265 266 264 260 255 253 239 234
327 329 329 329 327 327 323 318 315 309 304 303 303 303 303 301 299 297 293 287 283 281 277 282 281 276 281 279 281 280 273 268 269 270 267 262 259 263 264 262 254 245 235
324 325 325 327 326 324 321 318 316 310 303 302 302 301 300 300 298 296 293 288 284 282 279 275 271 275 275 279 277 277 277 278 276 268 260 262 255 252 259 263 262 248 237
319 322 323 323 323 323 327 318 317 310 303 300 301 296 290 290 295 296 291 289 290 289 288 283 281 281 283 284 279 275 270 269 260 261 252 246 254 254 247 257 259 255 241
315 315 316 320 323 323 329 318 317 310 303 302 297 291 291 296 297 295 292 290 286 285 283 281 280 280 278 278 275 279 280 268 269 267 252 237 248 241 253 252 248 250 244